Location: *
(32.8667°N, 13.1833°E)
Time: 16:36:09
(UTC+00:00)

Cosmos 1110 Rocket - Pass Details

Date: 18 July 2019
Orbit: 752 x 782 km, 74.0° (Epoch: 23 August)

Event Time Altitude Azimuth Distance (km) Brightness Sun altitude
Rises 18:33:35 0° 347° (NNW) 3,243 7.9 -4.3°
Reaches altitude 10° 18:36:00 10° 350° (N) 2,318 7.1 -4.7°
Maximum altitude 18:41:13 64° 72° (ENE) 856 4.1 -5.7°
Drops below altitude 10° 18:46:27 10° 154° (SSE) 2,321 6.0 -6.6°
Enters shadow 18:48:23 - 156° (SSE) 3,062 6.6 -7.0°
